Platteville, WI

4:06 PM CDT on September 30, 2016 (GMT -0500)
Platteville Municipal

Weather History for KPVB - November, 2011

Change the Weather History Date:

Thursday, November 10, 2011

  Actual Average (KDBQ) Record (KDBQ)
Temperature  
Mean Temperature 34 °F 40 °F  
Max Temperature 37 °F 48 °F 69 °F (1949)
Min Temperature 32 °F 31 °F 14 °F (1973)
Degree Days  
Heating Degree Days 30 25  
Month to date heating degree days 230  
Since 1 July heating degree days 879  
Cooling Degree Days 0 0  
Month to date cooling degree days 0  
Year to date cooling degree days 643  
Moisture  
Dew Point 28 °F    
Average Humidity 80    
Maximum Humidity 93    
Minimum Humidity 70    
Precipitation  
Precipitation 0.00 in 0.07 in 1.01 in (1880)
Month to date precipitation 0.81  
Year to date precipitation 32.91  
Snow  
Snow 0.00 in 0.10 in - ()
Month to date snowfall 0.3  
Since 1 July snowfall 0.3  
Since 1 September snowfall 0.3  
Snow Depth -    
Sea Level Pressure  
Sea Level Pressure 30.00 in    
Wind  
Wind Speed 12 mph (West)    
Max Wind Speed 17 mph    
Max Gust Speed 24 mph    
Visibility 10 miles    
Events      
T = Trace of Precipitation, MM = Missing Value Source: NWS Daily Summary

Daily Weather History Graph

Daily Weather History Graph

Search for Another Location

Airport or City:

Trip Planner

Search our weather history database for the weather conditions in past years. The results will help you decide how hot, cold, wet, or windy it might be!

Date:

Astronomy

Nov. 10, 2011 Rise Set
Actual Time 6:46 AM CST 4:44 PM CST
Civil Twilight 6:16 AM CST 5:14 PM CST
Nautical Twilight 5:42 AM CST 5:47 PM CST
Astronomical Twilight 5:09 AM CST 6:21 PM CST
Moon 4:30 PM CST (11/10) 6:40 AM CST (11/10)
Length of Visible Light 10h 57m
Length of Day
9h 57m
Full, 100% of the Moon is Illuminated
Nov 10
Full
Nov 10
Full
Nov 18
Last Quarter
Nov 25
New
Dec 2
First Quarter

Hourly Weather History & Observations

Time (CST) Temp. Windchill Dew Point Humidity Pressure Visibility Wind Dir Wind Speed Gust Speed Precip Events Conditions
12:15 AM 32.0 °F 22.5 °F 26.6 °F 80% 29.97 in 10.0 mi West 12.7 mph - N/A   Clear
12:35 AM 32.0 °F 23.0 °F 26.6 °F 80% 29.97 in 10.0 mi West 11.5 mph - N/A   Clear
12:55 AM 32.0 °F 24.2 °F 26.6 °F 80% 29.97 in 10.0 mi West 9.2 mph - N/A   Scattered Clouds
1:15 AM 32.0 °F 23.0 °F 24.8 °F 75% 29.96 in 10.0 mi West 11.5 mph - N/A   Clear
1:35 AM 32.0 °F 23.6 °F 24.8 °F 75% 29.96 in 10.0 mi WSW 10.4 mph - N/A   Clear
1:55 AM 32.0 °F 23.6 °F 24.8 °F 75% 29.96 in 10.0 mi West 10.4 mph - N/A   Clear
2:15 AM 32.0 °F 22.5 °F 24.8 °F 75% 29.96 in 10.0 mi West 12.7 mph - N/A   Scattered Clouds
2:35 AM 32.0 °F 23.0 °F 24.8 °F 75% 29.96 in 10.0 mi West 11.5 mph - N/A   Scattered Clouds
3:15 AM 32.0 °F 22.1 °F 24.8 °F 75% 29.95 in 10.0 mi West 13.8 mph - N/A   Scattered Clouds
3:35 AM 32.0 °F 23.0 °F 26.6 °F 80% 29.95 in 10.0 mi West 11.5 mph - N/A   Scattered Clouds
3:55 AM 32.0 °F 22.5 °F 26.6 °F 80% 29.95 in 10.0 mi West 12.7 mph 17.3 mph N/A   Scattered Clouds
4:15 AM 32.0 °F 21.2 °F 26.6 °F 80% 29.96 in 10.0 mi West 16.1 mph 20.7 mph N/A   Mostly Cloudy
4:35 AM 32.0 °F 22.1 °F 28.4 °F 87% 29.96 in 10.0 mi West 13.8 mph - N/A   Overcast
4:55 AM 32.0 °F 23.0 °F 28.4 °F 87% 29.95 in 10.0 mi West 11.5 mph - N/A   Overcast
5:15 AM 32.0 °F 23.6 °F 28.4 °F 87% 29.95 in 10.0 mi West 10.4 mph - N/A   Overcast
5:55 AM 32.0 °F 23.0 °F 28.4 °F 87% 29.96 in 10.0 mi West 11.5 mph - N/A   Overcast
6:15 AM 32.0 °F 22.5 °F 28.4 °F 87% 29.96 in 10.0 mi West 12.7 mph 20.7 mph N/A   Overcast
6:35 AM 32.0 °F 22.1 °F 28.4 °F 87% 29.96 in 10.0 mi West 13.8 mph 19.6 mph N/A   Overcast
6:55 AM 33.8 °F 24.3 °F 28.4 °F 81% 29.96 in 10.0 mi West 13.8 mph 19.6 mph N/A   Overcast
7:15 AM 33.8 °F 23.9 °F 28.4 °F 81% 29.97 in 10.0 mi West 15.0 mph - N/A   Overcast
7:35 AM 33.8 °F 24.8 °F 28.4 °F 81% 29.98 in 10.0 mi West 12.7 mph - N/A   Overcast
7:55 AM 33.8 °F 24.3 °F 30.2 °F 87% 29.98 in 10.0 mi West 13.8 mph - N/A   Overcast
8:35 AM 33.8 °F 24.3 °F 30.2 °F 87% 29.99 in 10.0 mi West 13.8 mph 18.4 mph N/A   Overcast
8:55 AM 33.8 °F 24.3 °F 30.2 °F 87% 29.99 in 10.0 mi West 13.8 mph - N/A   Overcast
9:15 AM 33.8 °F 23.9 °F 30.2 °F 87% 29.99 in 10.0 mi West 15.0 mph 19.6 mph N/A   Overcast
9:35 AM 33.8 °F 23.5 °F 30.2 °F 87% 29.99 in 10.0 mi West 16.1 mph - N/A   Mostly Cloudy
9:55 AM 35.6 °F 25.9 °F 30.2 °F 81% 29.99 in 10.0 mi West 16.1 mph 24.2 mph N/A   Scattered Clouds
10:15 AM 35.6 °F 25.9 °F 30.2 °F 81% 30.00 in 10.0 mi West 16.1 mph 23.0 mph N/A   Mostly Cloudy
10:35 AM 35.6 °F 25.5 °F 30.2 °F 81% 30.00 in 10.0 mi West 17.3 mph 24.2 mph N/A   Overcast
10:55 AM 33.8 °F 25.3 °F 30.2 °F 87% 30.01 in 3.0 mi WNW 11.5 mph 21.9 mph N/A   Overcast
11:15 AM 33.8 °F 24.8 °F 32.0 °F 93% 30.01 in 10.0 mi West 12.7 mph - N/A   Overcast
11:35 AM 35.6 °F 27.5 °F 30.2 °F 81% 30.00 in 10.0 mi West 11.5 mph - N/A   Mostly Cloudy
12:15 PM 35.6 °F 27.5 °F 30.2 °F 81% 30.00 in 10.0 mi West 11.5 mph - N/A   Overcast
12:35 PM 35.6 °F 27.1 °F 30.2 °F 81% 29.99 in 10.0 mi West 12.7 mph - N/A   Mostly Cloudy
12:55 PM 37.4 °F 28.5 °F 30.2 °F 75% 29.99 in 10.0 mi WNW 15.0 mph 20.7 mph N/A   Mostly Cloudy
1:15 PM 35.6 °F 27.1 °F 28.4 °F 75% 29.99 in 10.0 mi West 12.7 mph 18.4 mph N/A   Overcast
1:55 PM 37.4 °F 29.3 °F 28.4 °F 70% 30.00 in 10.0 mi West 12.7 mph 20.7 mph N/A   Overcast
2:15 PM 37.4 °F 29.3 °F 28.4 °F 70% 30.00 in 10.0 mi West 12.7 mph - N/A   Overcast
2:35 PM 37.4 °F 29.8 °F 28.4 °F 70% 30.01 in 10.0 mi West 11.5 mph 16.1 mph N/A   Mostly Cloudy
2:55 PM 37.4 °F 28.2 °F 28.4 °F 70% 30.01 in 10.0 mi West 16.1 mph - N/A   Mostly Cloudy
3:15 PM 35.6 °F 26.6 °F 28.4 °F 75% 30.02 in 10.0 mi West 13.8 mph 19.6 mph N/A   Overcast
3:35 PM 35.6 °F 26.2 °F 28.4 °F 75% 30.02 in 10.0 mi West 15.0 mph 20.7 mph N/A   Overcast
3:55 PM 35.6 °F 27.1 °F 28.4 °F 75% 30.03 in 10.0 mi West 12.7 mph - N/A   Overcast
4:15 PM 35.6 °F 28.6 °F 28.4 °F 75% 30.03 in 10.0 mi West 9.2 mph - N/A   Overcast
4:35 PM 35.6 °F 28.0 °F 28.4 °F 75% 30.04 in 10.0 mi West 10.4 mph - N/A   Overcast
4:55 PM 35.6 °F 27.1 °F 28.4 °F 75% 30.04 in 10.0 mi West 12.7 mph 16.1 mph N/A   Overcast
5:35 PM 35.6 °F 27.5 °F 28.4 °F 75% 30.03 in 10.0 mi West 11.5 mph - N/A   Overcast
5:55 PM 33.8 °F 25.8 °F 28.4 °F 81% 30.04 in 10.0 mi West 10.4 mph - N/A   Overcast
6:15 PM 33.8 °F 25.8 °F 28.4 °F 81% 30.04 in 10.0 mi West 10.4 mph - N/A   Overcast
6:35 PM 33.8 °F 26.4 °F 28.4 °F 81% 30.04 in 10.0 mi West 9.2 mph - N/A   Overcast
6:55 PM 33.8 °F 27.7 °F 28.4 °F 81% 30.04 in 10.0 mi West 6.9 mph - N/A   Overcast
7:15 PM 33.8 °F 27.7 °F 28.4 °F 81% 30.04 in 10.0 mi West 6.9 mph - N/A   Overcast
7:35 PM 33.8 °F 27.0 °F 28.4 °F 81% 30.04 in 10.0 mi West 8.1 mph - N/A   Overcast
7:55 PM 33.8 °F 27.7 °F 28.4 °F 81% 30.04 in 10.0 mi West 6.9 mph - N/A   Overcast
8:15 PM 33.8 °F 27.7 °F 28.4 °F 81% 30.04 in 10.0 mi West 6.9 mph - N/A   Overcast
8:35 PM 33.8 °F 27.0 °F 28.4 °F 81% 30.04 in 10.0 mi West 8.1 mph - N/A   Overcast
8:55 PM 33.8 °F 29.6 °F 28.4 °F 81% 30.04 in 10.0 mi West 4.6 mph - N/A   Overcast
9:15 PM 33.8 °F 28.6 °F 28.4 °F 81% 30.04 in 10.0 mi West 5.8 mph - N/A   Overcast
9:35 PM 33.8 °F 28.6 °F 28.4 °F 81% 30.04 in 10.0 mi West 5.8 mph - N/A   Overcast
9:55 PM 33.8 °F 29.6 °F 28.4 °F 81% 30.04 in 10.0 mi West 4.6 mph - N/A   Overcast
10:15 PM 32.0 °F 27.5 °F 28.4 °F 87% 30.03 in 10.0 mi West 4.6 mph - N/A   Overcast
10:35 PM 32.0 °F 26.4 °F 26.6 °F 80% 30.03 in 10.0 mi WSW 5.8 mph - N/A   Scattered Clouds
10:55 PM 32.0 °F 26.4 °F 26.6 °F 80% 30.03 in 10.0 mi WSW 5.8 mph - N/A   Clear
11:15 PM 32.0 °F 26.4 °F 26.6 °F 80% 30.02 in 10.0 mi WSW 5.8 mph - N/A   Clear
11:35 PM 32.0 °F 27.5 °F 26.6 °F 80% 30.02 in 10.0 mi SW 4.6 mph - N/A   Clear
11:55 PM 30.2 °F 25.4 °F 26.6 °F 86% 30.03 in 10.0 mi SW 4.6 mph - N/A   Clear